CAPE
1560 1590 1177 1067 1057 1010 922 1122 896 705 645 715 802 937 1089 1049 1069 1014 982 776 586 443 313 320 348 360 341 322 298 348 401 436 455 351 248 260 191 127 166 196 135 116 78 78 40 22 27 53 19 9 2 2 2 5 8 1 0 0 0 0 0 0 0 0 0 0 0 1 0 1 1 3 6 4 7 8 10 10 9 8 10 10 10 10 9
1572 1449 1107 1046 967 979 979 1082 1004 777 567 399 548 781 1023 1059 961 858 782 764 586 470 387 386 384 408 442 445 374 356 427 523 538 470 374 333 232 145 254 197 174 325 202 83 86 92 54 10 14 5 0 1 4 0 0 0 0 0 0 0 0 0 0 0 0 0 1 2 2 2 1 1 1 3 4 8 8 10 11 7 8 8 12 12 10
1324 1168 982 984 986 920 941 974 869 757 705 503 373 491 790 933 1103 1050 908 778 632 548 541 491 456 441 504 539 485 438 466 610 568 474 414 368 249 222 117 71 89 202 464 503 120 48 29 11 11 1 5 7 2 2 3 6 13 12 6 0 0 0 0 0 0 0 0 0 1 2 3 3 2 4 4 4 4 6 8 8 9 6 8 8 8
1234 1043 972 872 857 1003 922 942 932 817 728 707 618 357 476 623 780 1142 1254 1041 815 710 688 590 502 446 437 567 449 545 436 541 516 448 419 397 285 172 177 133 131 356 372 438 181 51 61 2 2 3 5 4 11 37 48 53 60 66 53 37 18 9 5 2 3 1 1 0 0 0 1 2 3 3 4 3 3 4 5 7 7 9 9 7 6
1176 1072 959 918 1032 1071 926 895 1196 883 928 999 807 642 484 575 630 732 1050 1001 875 816 795 722 609 447 421 596 651 458 538 468 431 349 305 329 307 360 360 282 306 241 211 147 187 55 51 29 4 9 104 121 125 105 125 147 163 168 162 130 100 145 91 31 23 5 4 2 1 0 2 1 2 2 3 4 3 2 4 4 4 5 5 8 7
1250 1121 1067 854 886 938 922 894 896 1088 1020 854 765 649 590 609 684 884 1106 1112 1038 860 802 792 734 563 567 360 356 370 309 478 404 326 353 299 309 340 425 492 232 211 107 86 136 75 54 36 154 231 165 124 157 217 236 241 229 249 243 198 174 218 188 240 132 87 45 37 17 8 0 2 2 0 0 1 3 4 4 4 4 3 3 8 7
1202 1225 1112 936 814 822 842 866 814 784 781 909 768 765 745 942 925 798 635 752 596 659 724 714 697 607 414 342 335 329 297 225 273 307 252 271 426 338 450 401 436 503 404 270 486 719 500 287 322 202 162 187 106 141 267 268 249 161 207 156 262 241 200 394 262 257 136 76 53 41 36 0 0 0 1 2 4 6 6 5 3 3 3 3 6
1119 1209 1365 1124 989 853 1020 968 798 724 642 861 846 689 930 985 1037 861 557 520 553 408 444 476 665 710 482 340 443 323 293 315 169 138 113 196 287 496 378 394 302 257 296 366 796 452 715 737 576 347 181 82 171 192 294 236 325 143 221 297 337 386 396 390 373 349 268 181 144 105 34 9 10 20 15 7 3 1 2 4 3 3 2 1 4
1207 1203 1369 1188 1199 1075 1143 930 936 749 675 697 763 850 1179 871 630 736 1015 668 551 396 331 431 642 773 591 351 420 437 339 337 199 84 125 188 386 496 350 231 668 626 928 777 921 740 670 654 638 593 512 756 210 185 208 143 502 332 286 250 491 477 441 409 368 344 327 332 224 33 28 30 25 31 17 2 2 1 0 0 1 5 7 5 5
1132 1094 1221 1191 1250 1196 1175 1022 904 847 802 726 813 1036 1189 1300 677 610 511 456 476 433 385 400 603 702 611 388 327 297 363 320 209 240 129 196 312 364 236 409 609 987 944 953 941 907 790 462 204 369 325 231 364 212 100 159 278 574 623 596 382 456 432 488 403 430 366 257 190 114 94 48 33 31 21 16 19 9 0 0 2 4 6 4 12
1020 1000 1267 1230 1279 1298 1203 1114 1026 1058 932 797 762 685 1016 968 734 488 402 390 440 478 374 380 639 695 537 408 390 356 299 272 181 94 155 373 574 495 332 296 577 709 680 876 942 928 925 889 751 700 646 149 460 398 324 470 221 450 596 638 498 460 302 422 289 154 44 8 26 77 63 50 46 31 33 27 15 0 0 0 1 1 4 33 30
940 928 1096 1275 1334 1256 1290 1239 1101 1112 1190 1020 685 641 613 715 642 453 377 307 294 324 312 373 495 497 398 294 254 240 238 251 148 87 100 211 612 651 348 484 648 587 645 469 609 381 576 657 640 762 730 566 301 270 352 242 103 372 344 780 376 453 258 316 190 0 0 0 1 23 99 103 46 54 43 33 14 0 0 0 0 10 18 20 11
872 859 970 1225 1399 1370 1330 1463 1143 1101 1288 1316 1001 642 729 818 581 557 439 302 299 306 316 293 272 249 226 284 263 262 208 218 138 84 142 182 153 355 329 180 515 178 504 408 137 110 96 280 404 618 396 737 666 218 189 181 173 310 249 294 279 436 154 13 0 0 0 0 0 3 16 115 64 29 20 23 37 3 0 0 2 19 16 8 7
804 908 884 1102 1186 1120 1213 1357 1205 1177 1200 1318 1050 882 826 891 506 499 372 351 347 289 302 296 276 337 204 209 540 421 406 269 113 110 79 114 64 51 322 510 539 474 485 379 91 74 62 69 189 290 214 635 792 905 616 408 326 234 192 339 151 6 0 0 0 0 0 0 30 99 34 114 72 44 35 35 0 0 0 2 20 15 11 4 3
726 828 878 921 1003 1072 996 635 556 634 747 756 723 668 712 770 677 648 367 343 340 360 335 458 592 349 546 373 141 286 171 180 155 140 110 78 77 198 288 444 572 572 501 245 118 64 56 104 229 155 171 407 756 646 616 361 320 378 458 106 6 0 0 0 0 0 81 194 219 239 110 149 99 72 26 0 2 10 16 20 20 3 5 3 3
771 814 843 829 1101 1059 992 556 481 450 675 1006 967 626 560 803 922 901 655 388 349 382 368 339 413 374 216 251 377 316 149 232 142 160 146 65 109 66 104 394 570 456 88 133 75 82 82 83 117 116 243 334 579 576 592 575 77 53 6 12 2 0 0 0 0 45 285 305 273 242 229 226 146 15 0 28 39 27 25 12 1 1 1 1 1
827 885 859 968 1141 1187 833 695 590 524 532 1120 1096 761 547 630 846 954 860 602 431 392 281 294 436 600 503 182 116 68 96 62 134 90 112 77 106 96 91 29 101 70 68 142 99 70 105 90 102 120 193 256 374 545 506 203 136 130 3 0 0 0 0 0 0 185 376 454 337 273 187 146 103 47 47 26 19 8 1 0 0 0 0 0 0
731 878 937 1008 1278 1120 1053 617 569 519 556 945 979 874 482 489 508 915 939 907 576 373 246 327 432 431 782 1032 520 134 163 105 130 88 145 110 92 96 237 65 52 65 72 92 86 78 106 204 74 80 137 131 182 407 106 141 35 46 3 0 0 0 0 18 37 336 308 450 368 185 167 94 86 72 24 9 2 0 0 0 0 0 0 0 0
779 959 957 939 1023 1134 1112 815 584 467 501 841 928 679 636 480 534 833 894 834 784 525 306 237 250 201 270 350 288 143 336 126 66 62 25 88 120 98 93 37 94 61 79 82 172 117 70 60 38 33 32 76 88 144 123 14 5 9 1 0 0 0 0 0 0 162 245 304 405 229 152 144 98 56 11 0 0 0 0 0 0 0 0 0 0
610 891 998 847 722 680 667 958 780 447 421 900 833 792 722 524 511 764 689 617 767 768 514 327 235 294 221 256 268 264 410 762 275 127 155 90 38 118 136 119 116 76 122 102 142 149 82 91 8 5 13 19 66 54 6 0 0 0 0 0 0 0 0 0 0 0 186 190 300 215 178 138 68 8 0 0 0 0 0 0 0 0 0 0 0
653 612 767 630 490 488 560 516 812 1005 1080 692 1001 790 743 648 512 553 675 614 835 926 748 448 395 449 317 95 128 354 394 658 499 241 190 45 58 96 76 62 96 48 72 87 65 130 51 101 27 12 27 39 39 2 0 0 0 0 0 0 0 0 0 0 0 45 82 171 198 191 130 48 21 0 0 0 0 0 0 0 0 0 0 0 0
596 552 558 495 625 609 498 498 588 604 923 1274 1042 722 657 611 524 542 609 535 746 873 886 755 564 580 403 245 207 187 257 238 309 208 204 206 111 40 84 65 46 73 58 87 108 138 122 94 66 23 26 34 3 0 0 0 0 0 0 0 0 0 0 0 0 0 0 9 77 31 24 15 5 1 0 0 0 0 0 0 0 0 0 0 0
531 582 594 540 534 526 568 528 377 553 621 1008 1274 1104 746 659 566 579 675 598 657 763 659 773 663 618 367 245 255 269 360 353 370 306 240 114 86 128 63 50 57 92 67 70 122 109 56 78 84 38 80 25 0 0 0 0 0 0 0 0 0 0 0 0 0 0 0 0 0 0 2 2 2 2 1 0 0 0 0 0 0 0 0 0 0
460 515 546 670 529 534 598 633 478 543 560 802 1076 1159 1202 756 572 682 708 713 774 756 636 520 493 450 298 368 452 511 614 612 597 492 318 230 165 89 55 42 42 22 24 88 89 102 45 43 59 58 47 4 0 0 0 0 0 0 0 0 0 0 0 0 0 0 0 0 0 0 0 0 0 0 0 0 0 0 0 0 0 0 0 0 0
713 588 398 461 562 634 576 646 546 462 431 624 827 867 1028 592 569 599 690 697 535 476 510 498 426 431 300 367 492 591 619 597 625 413 294 289 276 167 55 69 51 21 15 31 24 69 106 66 2 1 0 0 0 0 0 0 0 0 0 0 0 0 0 0 0 0 0 0 0 0 0 0 0 0 0 0 0 0 2 1 0 0 0 0 0
483 430 401 394 509 572 580 577 661 545 456 494 589 717 484 452 423 415 338 498 505 516 521 473 526 447 549 606 530 609 607 517 444 374 307 350 390 237 104 55 40 3 3 12 24 11 6 1 1 0 17 11 0 0 0 0 0 0 0 0 0 0 0 0 0 0 0 0 0 0 0 0 0 0 0 3 5 0 0 0 0 0 0 0 0
604 452 278 237 261 344 394 474 614 548 453 490 524 462 409 413 465 495 493 558 626 549 449 490 478 467 564 679 706 684 775 318 417 472 468 401 348 328 114 70 8 14 4 8 11 26 170 5 0 0 1 9 0 0 0 0 0 0 0 0 0 0 0 0 0 0 0 0 0 0 0 0 0 0 0 0 0 0 0 0 0 0 0 0 0
585 441 275 217 278 306 339 375 439 410 451 434 521 553 530 475 478 521 638 582 697 627 430 418 405 486 706 750 834 844 778 456 346 476 441 366 319 310 242 169 62 1 3 5 11 36 100 33 0 1 2 2 5 0 0 0 0 0 0 0 0 0 0 0 0 0 0 0 0 0 0 0 0 0 0 0 0 0 0 0 0 0 0 0 0
554 393 318 273 302 350 365 374 413 483 475 522 546 610 726 632 502 503 625 559 593 663 520 300 379 562 902 920 860 951 796 590 420 520 498 317 362 401 268 258 168 113 13 3 81 74 93 28 15 0 0 0 0 0 0 0 0 0 0 0 0 0 0 0 0 0 0 0 0 0 0 0 0 0 0 0 0 0 0 0 0 0 0 0 0
523 390 396 424 453 458 412 379 350 320 396 519 573 612 697 773 704 618 503 375 369 440 517 390 415 509 632 845 874 946 816 646 481 605 527 462 376 355 319 255 262 256 195 80 203 164 207 23 125 35 0 0 0 0 0 0 0 0 0 0 0 0 0 0 0 0 0 0 0 0 0 0 0 0 0 0 0 0 0 0 0 0 0 0 0
462 479 435 446 463 459 417 436 456 428 408 502 468 476 595 689 594 442 313 328 431 488 414 357 378 472 442 578 786 891 797 610 662 588 388 449 414 397 352 305 286 258 267 188 74 433 306 123 60 23 0 0 0 0 0 0 0 0 0 0 0 0 0 0 0 0 0 0 0 0 0 0 0 0 0 0 0 0 0 0 0 0 0 0 0
569 577 542 408 383 395 366 399 466 508 476 468 479 467 511 646 596 508 398 406 483 490 448 355 339 394 491 458 611 872 817 706 705 466 488 398 467 434 435 382 306 266 251 178 167 336 10 140 95 2 0 0 0 0 0 0 0 0 0 0 0 0 0 0 0 0 0 0 0 0 0 0 0 0 0 0 0 0 0 0 0 0 0 0 0
591 519 519 474 394 366 416 459 517 563 586 543 479 489 535 640 620 610 463 405 497 537 384 378 298 392 461 498 672 776 806 816 767 634 444 453 470 484 496 462 378 275 144 171 188 155 0 0 0 0 0 0 0 0 0 0 0 0 0 0 0 0 0 0 0 0 0 0 0 0 0 0 0 0 0 0 0 0 0 0 0 0 0 0 0
544 547 532 461 387 408 487 529 523 522 547 524 464 446 532 468 424 462 405 443 530 401 306 262 319 382 505 704 884 753 682 786 835 669 532 483 359 421 483 482 454 295 161 152 166 137 7 0 0 0 0 0 0 0 0 0 0 0 0 0 0 0 0 0 0 0 0 0 0 0 0 0 0 0 0 0 0 0 0 0 0 0 0 0 0
498 613 609 455 452 515 586 608 523 446 411 383 341 413 502 473 405 415 445 473 454 335 320 199 216 332 555 779 940 591 510 660 549 670 664 638 507 530 558 466 450 326 223 167 158 164 50 0 0 0 0 0 0 0 0 0 0 0 0 0 0 0 0 0 0 0 0 0 0 0 0 0 0 0 0 0 0 0 0 0 0 0 0 0 0
527 565 550 475 489 564 609 610 546 420 345 324 391 460 492 496 479 523 570 560 420 337 396 314 266 454 788 898 632 645 575 634 621 728 658 389 415 416 638 653 507 321 303 257 187 81 79 0 0 0 0 0 0 0 0 0 0 0 0 0 0 0 0 0 0 0 0 0 0 0 0 0 0 0 0 0 0 0 0 0 0 0 0 0 0
532 449 408 393 482 533 609 586 520 414 356 376 390 398 382 460 532 648 649 470 360 343 425 473 476 594 1018 1049 884 633 695 589 627 664 431 500 405 416 768 798 563 520 347 310 245 158 121 68 0 0 0 0 0 0 0 0 0 0 0 0 0 0 0 0 0 0 0 0 0 0 0 0 0 0 0 0 0 0 0 0 0 0 0 0 0
416 405 357 390 418 444 517 553 472 382 344 390 454 435 428 497 583 599 451 332 336 412 476 500 381 549 1169 1260 1064 791 802 760 743 678 508 480 427 616 846 924 682 470 392 360 284 243 158 118 81 0 0 0 0 0 0 0 0 0 0 0 0 0 0 0 0 0 0 0 0 0 0 0 0 0 0 0 0 0 0 0 0 0 0 0 0
364 346 354 350 390 354 435 526 450 420 368 370 512 516 496 470 438 440 364 296 368 460 317 420 532 759 1211 1274 1171 979 690 801 886 712 605 671 584 714 930 1109 822 564 421 358 308 284 167 189 152 36 0 0 0 0 0 0 0 0 0 0 0 0 0 0 0 0 0 0 0 0 0 0 0 0 0 0 0 0 0 0 0 0 0 0 0
348 310 298 293 283 315 440 469 424 385 349 437 524 482 400 387 434 444 509 498 454 422 348 354 361 585 986 1170 987 926 1024 1240 1143 976 686 826 528 680 870 1020 895 680 514 421 374 319 66 30 140 116 0 0 0 0 0 0 0 0 0 0 0 0 0 0 0 0 0 0 0 0 0 0 0 0 0 0 0 0 0 0 0 0 0 0 0
274 280 278 246 270 330 437 482 428 354 384 498 495 408 404 483 577 572 552 505 535 444 341 333 289 421 638 595 844 712 727 703 722 816 688 644 512 494 496 512 771 867 708 469 273 333 279 115 0 101 60 0 0 0 0 0 0 0 0 0 0 0 0 0 0 0 0 0 0 0 0 0 0 0 0 0 0 0 0 0 0 0 0 0 0
191 208 260 261 248 292 392 452 429 363 452 498 455 426 528 579 616 559 530 453 417 377 307 302 369 562 635 655 537 582 646 636 594 534 518 490 409 432 478 333 484 791 675 620 359 225 234 227 144 93 0 0 72 142 145 0 0 0 0 0 0 0 0 0 0 0 0 0 0 0 0 0 0 0 0 0 0 0 0 0 0 0 0 0 0
113 142 118 111 136 214 318 389 440 394 457 548 512 476 474 506 536 552 383 334 364 255 285 365 410 575 592 588 606 605 521 427 382 418 477 444 383 384 374 413 402 700 831 550 351 335 270 215 185 77 1 2 6 2 0 0 0 0 0 0 0 0 0 0 0 0 0 0 0 0 0 0 0 0 0 0 0 0 0 0 0 0 0 0 0
56 64 58 66 78 104 273 330 410 395 460 502 398 312 365 501 603 530 357 366 302 231 250 358 452 502 526 428 371 268 253 233 263 290 366 401 351 292 298 353 409 415 426 406 494 394 357 299 243 0 1 1 0 0 0 0 1 0 0 0 0 0 0 0 0 0 1 0 0 0 0 0 0 0 0 0 0 0 0 0 0 0 0 0 0
18 32 47 75 100 168 262 291 283 404 550 529 269 335 459 513 526 388 316 231 357 147 317 426 344 181 176 145 135 202 201 250 279 298 386 443 308 248 242 310 309 284 286 244 234 233 241 265 290 165 1 1 0 0 0 0 1 0 0 0 0 0 0 0 0 0 0 0 0 0 0 0 0 0 2 18 6 0 0 0 0 0 0 0 0
8 11 32 32 37 131 199 223 282 499 539 228 284 377 374 341 292 277 264 248 199 98 240 243 149 0 0 122 126 169 246 250 278 297 362 382 335 261 265 292 262 244 235 231 17 0 0 107 152 120 0 0 1 0 0 0 2 0 0 0 0 0 0 0 0 0 0 0 0 0 42 64 1 3 30 47 2 0 10 0 0 0 0 0 0
3 4 8 0 61 131 138 180 338 459 222 260 273 259 170 170 156 193 165 107 86 100 139 120 16 118 18 0 84 180 270 290 299 315 320 326 337 310 246 198 181 251 247 40 0 0 0 0 0 120 65 0 0 0 0 0 0 0 0 0 0 0 0 0 0 0 0 0 0 0 72 106 0 2 16 19 3 1 14 0 0 0 0 0 0
0 0 0 0 41 127 103 178 289 216 172 176 146 134 110 106 112 90 65 55 68 88 75 92 126 125 41 123 159 195 263 221 204 187 196 266 292 282 191 158 167 102 2 0 0 0 0 0 0 0 0 0 2 3 2 0 0 0 0 0 0 0 50 87 162 0 0 0 0 0 5 10 0 0 0 0 0 0 0 2 0 0 0 0 0
8 5 0 1 11 12 75 194 135 70 94 112 96 108 82 87 95 69 34 48 42 35 108 146 149 131 128 146 158 169 173 133 122 0 92 122 137 0 126 152 114 42 0 0 0 0 0 0 0 0 0 1 1 1 0 0 0 47 69 67 50 38 85 112 63 26 1 1 1 0 0 0 1 1 0 0 0 0 0 0 0 0 0 0 0
33 31 14 2 29 59 85 92 82 99 95 85 85 69 96 103 100 63 48 6 4 117 160 178 155 136 137 156 148 131 0 0 86 78 0 0 0 0 0 0 0 0 0 0 0 0 0 1 0 0 0 0 0 0 0 0 0 0 4 2 0 0 0 4 12 2 0 1 1 1 0 0 0 2 0 0 0 1 0 0 0 0 0 0 0
26 15 5 0 1 29 62 69 26 57 82 131 153 120 113 100 85 87 88 92 110 146 159 159 157 144 146 168 176 167 70 0 0 32 38 0 0 0 0 0 0 0 0 8 6 4 1 2 2 4 0 0 0 0 1 0 0 0 0 0 0 0 0 0 0 0 0 3 0 0 0 0 0 0 0 0 0 0 1 4 0 0 0 0 0
Wind_Speed
21 19 19 20 21 20 19 19 18 16 14 12 10 9 9 12 15 16 16 17 17 17 18 18 17 16 14 15 15 15 14 14 14 14 15 15 15 17 17 18 16 15 nan nan nan nan nan nan nan nan nan nan nan nan nan nan nan nan nan nan nan nan nan nan nan nan nan nan nan nan nan nan nan nan nan nan nan nan nan nan nan nan nan nan nan
22 20 20 21 21 20 19 19 18 17 15 14 11 9 8 11 14 16 17 17 17 17 17 17 16 15 14 15 16 15 15 14 14 14 14 14 15 17 18 16 13 13 15 nan nan nan nan nan nan nan nan nan nan nan nan nan nan nan nan nan nan nan nan nan nan nan nan nan nan nan nan nan nan nan nan nan nan nan nan nan nan nan nan nan nan
22 20 20 21 21 20 19 18 17 17 16 15 13 10 8 10 13 15 16 16 17 17 16 16 16 15 14 15 16 15 14 14 14 15 15 15 16 16 18 nan nan 15 14 15 19 nan nan nan nan nan nan nan nan nan nan nan nan nan nan nan nan nan nan nan nan nan nan nan nan nan nan nan nan nan nan nan nan nan nan nan nan nan nan nan nan
22 21 19 20 21 20 19 18 16 17 16 15 14 11 9 11 13 15 16 16 16 15 15 15 15 15 14 15 15 14 14 14 14 15 15 15 15 16 16 17 16 15 16 16 18 nan nan nan nan nan nan nan nan nan nan nan nan nan nan nan nan nan nan nan nan nan nan nan nan nan nan nan nan nan nan nan nan nan nan nan nan nan nan nan nan
21 20 19 20 21 21 20 18 16 15 16 16 15 13 12 12 13 14 15 16 15 15 14 14 15 15 15 15 14 14 14 14 14 14 14 15 16 16 16 15 17 18 16 17 18 nan nan nan nan nan 19 20 20 19 17 16 15 14 13 12 nan 12 nan nan nan nan nan nan nan nan nan nan nan nan nan nan nan nan nan nan nan nan nan nan nan
21 19 18 20 21 22 21 18 16 15 16 15 14 14 13 13 13 13 14 14 14 13 13 14 15 15 16 15 14 14 14 14 14 13 14 14 16 16 16 15 15 16 17 nan 18 nan nan nan 17 17 17 17 17 17 15 14 13 13 13 13 12 13 12 12 13 nan nan nan nan nan nan nan nan nan nan nan nan nan nan nan nan nan nan nan nan
20 19 18 20 21 22 21 19 17 15 15 16 15 16 16 15 13 14 13 13 13 12 12 12 13 15 15 14 14 14 14 14 13 13 14 14 15 16 16 16 15 15 16 17 18 17 14 15 16 16 14 13 13 13 13 12 12 12 12 12 11 10 11 11 13 13 13 nan nan nan nan nan nan nan nan nan nan nan nan nan nan nan nan nan nan
20 19 19 19 20 21 21 20 18 16 15 16 16 16 18 17 15 14 14 13 13 13 12 13 14 15 15 14 14 14 14 14 13 13 13 13 14 15 16 16 16 16 16 15 16 17 16 13 11 11 10 nan 11 11 11 10 10 10 12 11 10 12 12 12 12 13 14 13 13 14 nan nan nan nan nan nan nan nan nan nan nan nan nan nan nan
20 18 17 18 19 20 21 19 18 16 16 15 15 16 18 18 15 13 14 14 13 14 14 14 15 15 15 14 14 14 13 13 12 nan 13 13 14 14 15 15 17 16 14 13 13 14 14 11 10 9 9 9 7 8 9 9 8 9 10 7 11 13 14 15 14 14 13 12 9 nan nan nan nan nan nan nan nan nan nan nan nan nan nan nan nan
19 18 16 17 18 19 20 19 18 17 16 16 15 16 17 18 17 15 14 14 13 13 13 14 15 15 14 14 15 13 13 13 12 12 13 14 13 13 14 14 15 14 12 10 10 10 10 11 9 8 8 8 9 7 nan 4 7 8 8 9 13 14 15 16 15 15 15 14 10 9 nan nan nan nan nan nan nan nan nan nan nan nan nan nan nan
18 17 16 16 17 18 20 19 19 17 16 15 15 14 15 16 16 16 15 14 13 13 14 15 16 15 15 15 15 15 14 13 12 nan 12 13 13 12 13 13 14 13 11 9 9 9 7 5 5 5 9 9 6 7 8 7 7 8 7 9 13 14 13 13 13 12 nan nan nan nan nan nan nan nan nan nan nan nan nan nan nan nan nan nan nan
16 17 15 16 16 17 17 18 19 19 18 15 14 13 14 15 15 17 17 17 16 15 15 16 17 17 16 15 15 16 14 13 13 nan 12 13 12 12 11 13 12 12 11 10 8 8 7 5 4 4 3 8 7 7 9 9 7 6 7 10 13 12 10 10 11 nan nan nan nan nan nan 12 nan nan nan nan nan nan nan nan nan nan nan nan nan
15 15 15 15 15 15 16 18 18 19 18 15 12 12 14 15 17 17 18 19 18 16 15 16 18 18 16 14 14 15 15 14 14 nan 12 13 13 12 10 11 13 11 10 9 8 7 nan 6 5 3 3 4 6 8 8 7 7 7 10 11 11 11 11 nan nan nan nan nan nan nan nan 13 nan nan nan nan nan nan nan nan nan nan nan nan nan
14 14 15 16 17 16 17 19 20 19 17 15 13 13 16 18 19 19 16 17 18 17 16 17 15 14 15 15 15 14 14 14 14 13 nan 13 nan nan 12 10 12 12 10 9 nan nan nan nan 4 3 3 3 3 5 5 8 7 7 11 10 11 nan nan nan nan nan nan nan nan nan nan 15 nan nan nan nan nan nan nan nan nan nan nan nan nan
13 15 16 16 18 18 16 19 21 21 18 16 15 16 17 18 18 19 19 17 19 17 16 12 14 14 14 15 14 15 16 14 15 14 14 nan nan 12 12 11 12 11 10 9 8 nan nan 6 4 4 4 4 4 4 6 6 10 7 7 10 nan nan nan nan nan nan nan 12 14 16 16 17 nan nan nan nan nan nan nan nan nan nan nan nan nan
14 15 15 15 18 18 17 17 23 20 16 15 15 16 18 18 17 17 18 20 20 17 13 12 14 16 16 14 16 14 15 12 14 15 14 nan 17 nan 11 11 12 12 nan 8 nan nan nan nan 5 5 5 6 6 6 6 9 nan nan nan nan nan nan nan nan nan nan 15 18 19 18 18 19 19 nan nan nan nan nan nan nan nan nan nan nan nan
15 15 15 15 17 19 17 18 22 18 15 15 16 15 17 16 17 17 16 18 19 18 15 14 13 13 18 18 17 nan nan nan 16 nan 14 nan 16 nan nan nan 11 nan nan 9 nan nan 9 nan 7 7 7 6 7 7 8 10 10 11 nan nan nan nan nan nan nan 16 18 21 21 21 21 21 21 nan nan nan nan nan nan nan nan nan nan nan nan
15 16 16 17 19 19 18 17 18 16 12 15 17 19 19 17 18 16 16 17 17 18 17 16 13 16 17 19 18 16 14 16 16 nan 16 14 nan nan 14 nan nan nan nan nan nan nan 9 9 nan nan 8 7 8 9 9 10 nan nan nan nan nan nan nan nan nan 17 20 25 24 23 23 nan nan nan nan nan nan nan nan nan nan nan nan nan nan
19 18 18 19 19 19 18 17 16 15 12 14 18 16 16 16 18 18 17 17 16 17 18 17 16 15 17 19 19 19 17 18 nan nan nan nan 14 nan nan nan nan nan nan nan 11 12 nan nan nan nan nan nan nan 10 11 nan nan nan nan nan nan nan nan nan nan 14 20 23 25 24 23 23 nan nan nan nan nan nan nan nan nan nan nan nan nan
21 19 19 22 23 19 20 19 16 16 15 15 16 16 17 17 18 17 19 18 16 17 18 17 16 15 16 18 19 19 18 18 17 17 17 nan nan 15 17 15 13 nan 12 12 12 14 nan nan nan nan nan nan nan nan nan nan nan nan nan nan nan nan nan nan nan nan 18 21 23 22 23 23 nan nan nan nan nan nan nan nan nan nan nan nan nan
23 21 22 22 22 22 23 18 16 16 16 15 17 20 18 18 19 19 20 19 18 17 18 16 14 15 18 nan 19 20 20 20 19 17 17 nan nan nan nan nan nan nan nan nan nan 15 nan 14 nan nan nan nan nan nan nan nan nan nan nan nan nan nan nan nan nan nan nan 20 22 23 23 nan nan nan nan nan nan nan nan nan nan nan nan nan nan
23 21 19 22 23 22 22 19 18 16 17 15 16 18 20 19 18 17 19 19 19 18 18 18 15 15 17 19 19 20 20 19 18 17 18 16 17 nan nan nan nan nan nan nan 15 16 16 nan nan nan nan nan nan nan nan nan nan nan nan nan nan nan nan nan nan nan nan nan nan nan nan nan nan nan nan nan nan nan nan nan nan nan nan nan nan
24 22 17 19 20 20 20 18 17 16 15 16 17 18 22 24 21 17 20 19 20 18 18 18 16 15 17 18 18 18 19 18 19 18 18 18 nan 18 nan nan nan nan nan nan 16 16 nan nan nan nan nan nan nan nan nan nan nan nan nan nan nan nan nan nan nan nan nan nan nan nan nan nan nan nan nan nan nan nan nan nan nan nan nan nan nan
26 23 19 20 22 21 19 19 18 16 14 16 19 20 22 28 22 19 22 20 20 18 20 19 16 16 16 17 17 17 18 19 20 20 18 18 17 nan nan nan nan nan nan nan nan 17 nan nan nan nan nan nan nan nan nan nan nan nan nan nan nan nan nan nan nan nan nan nan nan nan nan nan nan nan nan nan nan nan nan nan nan nan nan nan nan
23 23 22 21 23 22 21 19 18 18 17 20 23 23 24 28 25 23 22 17 18 18 17 17 15 17 16 15 15 16 16 19 20 19 18 19 18 19 nan nan nan nan nan nan nan nan 17 nan nan nan nan nan nan nan nan nan nan nan nan nan nan nan nan nan nan nan nan nan nan nan nan nan nan nan nan nan nan nan nan nan nan nan nan nan nan
22 21 23 23 23 25 24 19 20 21 18 21 25 26 27 28 30 26 22 21 23 18 16 16 16 15 17 16 15 15 16 19 19 18 18 19 19 19 21 nan nan nan nan nan nan nan nan nan nan nan nan nan nan nan nan nan nan nan nan nan nan nan nan nan nan nan nan nan nan nan nan nan nan nan nan nan nan nan nan nan nan nan nan nan nan
26 23 24 23 23 25 24 21 26 25 21 21 25 27 26 27 26 26 24 23 22 21 19 16 16 15 16 16 16 15 17 18 19 18 19 19 19 21 22 nan nan nan nan nan nan nan 19 nan nan nan nan nan nan nan nan nan nan nan nan nan nan nan nan nan nan nan nan nan nan nan nan nan nan nan nan nan nan nan nan nan nan nan nan nan nan
29 28 25 24 24 22 23 24 25 25 23 22 23 28 29 28 27 27 25 24 24 19 18 17 14 13 14 15 16 16 18 18 18 18 18 18 19 22 22 23 nan nan nan nan nan nan nan nan nan nan nan nan nan nan nan nan nan nan nan nan nan nan nan nan nan nan nan nan nan nan nan nan nan nan nan nan nan nan nan nan nan nan nan nan nan
30 30 27 24 25 25 24 22 23 26 25 23 24 25 27 27 26 25 26 25 24 19 18 17 14 14 15 16 16 17 18 19 18 18 18 19 21 22 22 21 21 22 nan nan nan nan nan nan nan nan nan nan nan nan nan nan nan nan nan nan nan nan nan nan nan nan nan nan nan nan nan nan nan nan nan nan nan nan nan nan nan nan nan nan nan
31 31 28 24 25 26 25 22 23 27 27 26 24 24 27 28 26 24 25 25 24 25 20 17 15 16 17 17 17 18 19 19 17 19 19 20 21 22 21 21 21 19 21 nan 20 20 23 nan 20 nan nan nan nan nan nan nan nan nan nan nan nan nan nan nan nan nan nan nan nan nan nan nan nan nan nan nan nan nan nan nan nan nan nan nan nan
30 31 27 24 25 26 26 25 25 27 28 27 25 24 26 28 26 25 26 26 25 24 24 20 15 18 18 17 17 18 20 19 20 20 20 20 20 21 21 21 21 19 20 19 nan 24 23 25 nan nan nan nan nan nan nan nan nan nan nan nan nan nan nan nan nan nan nan nan nan nan nan nan nan nan nan nan nan nan nan nan nan nan nan nan nan
28 29 27 23 23 26 26 26 25 26 28 26 23 25 25 26 26 25 27 26 24 22 22 20 18 16 20 19 18 19 20 20 20 20 20 20 20 21 22 22 22 22 21 21 19 24 nan 23 nan nan nan nan nan nan nan nan nan nan nan nan nan nan nan nan nan nan nan nan nan nan nan nan nan nan nan nan nan nan nan nan nan nan nan nan nan
26 27 25 21 21 23 25 25 23 24 24 23 22 23 24 23 23 25 28 27 24 23 23 21 19 18 20 19 20 20 21 21 21 21 20 20 21 21 21 22 22 24 23 22 20 23 nan nan nan nan nan nan nan nan nan nan nan nan nan nan nan nan nan nan nan nan nan nan nan nan nan nan nan nan nan nan nan nan nan nan nan nan nan nan nan
24 24 23 22 21 21 24 24 23 22 21 21 22 22 22 22 23 25 27 26 25 23 25 25 21 19 20 21 23 23 22 21 22 21 21 21 21 21 22 22 23 24 24 23 21 21 nan nan nan nan nan nan nan nan nan nan nan nan nan nan nan nan nan nan nan nan nan nan nan nan nan nan nan nan nan nan nan nan nan nan nan nan nan nan nan
21 22 23 23 22 21 22 23 21 20 20 20 20 21 20 22 23 25 27 27 26 26 25 26 24 19 18 21 23 24 24 22 22 21 22 23 22 21 21 23 23 25 26 24 24 23 nan nan nan nan nan nan nan nan nan nan nan nan nan nan nan nan nan nan nan nan nan nan nan nan nan nan nan nan nan nan nan nan nan nan nan nan nan nan nan
17 19 21 22 22 20 19 20 20 20 20 20 20 21 21 22 24 25 27 27 27 27 26 27 24 20 19 22 23 24 24 23 22 23 23 24 21 23 21 24 25 27 28 27 24 nan nan nan nan nan nan nan nan nan nan nan nan nan nan nan nan nan nan nan nan nan nan nan nan nan nan nan nan nan nan nan nan nan nan nan nan nan nan nan nan
15 17 19 20 20 20 19 19 19 19 20 20 20 20 21 24 25 26 27 26 27 28 28 28 24 19 22 23 24 24 24 23 23 24 25 25 23 23 22 24 26 27 28 28 25 24 24 nan nan nan nan nan nan nan nan nan nan nan nan nan nan nan nan nan nan nan nan nan nan nan nan nan nan nan nan nan nan nan nan nan nan nan nan nan nan
15 18 18 18 18 18 19 18 19 19 20 21 21 22 22 24 26 28 28 27 27 27 27 26 21 19 25 25 25 25 24 23 24 24 25 24 23 23 23 24 25 27 27 27 25 24 22 23 nan nan nan nan nan nan nan nan nan nan nan nan nan nan nan nan nan nan nan nan nan nan nan nan nan nan nan nan nan nan nan nan nan nan nan nan nan
16 18 19 18 18 17 17 17 17 19 21 23 24 25 25 26 26 26 25 25 26 25 28 26 19 20 27 28 28 26 25 24 25 25 25 24 23 22 24 24 24 25 27 26 24 27 27 24 24 nan nan nan nan nan nan nan nan nan nan nan nan nan nan nan nan nan nan nan nan nan nan nan nan nan nan nan nan nan nan nan nan nan nan nan nan
18 16 17 19 20 19 17 16 17 20 22 24 26 28 27 26 26 26 25 24 25 25 25 25 19 22 27 32 30 28 27 27 26 27 26 25 26 24 24 23 24 25 25 26 26 29 nan nan 21 22 nan nan nan nan nan nan nan nan nan nan nan nan nan nan nan nan nan nan nan nan nan nan nan nan nan nan nan nan nan nan nan nan nan nan nan
19 18 17 19 22 22 20 19 19 21 22 25 27 29 28 26 26 28 27 25 26 26 25 26 20 22 29 33 32 30 30 32 31 30 28 27 26 25 25 24 22 23 25 25 25 26 25 26 nan 26 nan nan nan nan nan nan nan nan nan nan nan nan nan nan nan nan nan nan nan nan nan nan nan nan nan nan nan nan nan nan nan nan nan nan nan
17 19 19 20 22 24 25 24 24 25 23 24 29 30 30 29 29 30 30 29 31 31 29 25 23 31 33 32 30 32 33 33 32 30 28 29 28 25 25 24 21 22 23 24 25 25 25 26 28 nan nan nan nan 25 24 nan nan nan nan nan nan nan nan nan nan nan nan nan nan nan nan nan nan nan nan nan nan nan nan nan nan nan nan nan nan
19 20 20 21 23 25 26 27 27 28 27 30 30 30 30 33 33 32 30 29 29 31 28 25 25 33 35 34 32 33 33 34 33 29 26 30 29 30 29 28 27 22 22 23 23 25 25 25 28 nan nan nan nan nan nan nan nan nan nan nan nan nan nan nan nan nan nan nan nan nan nan nan nan nan nan nan nan nan nan nan nan nan nan nan nan
nan nan nan nan nan 27 27 26 29 32 33 34 33 31 30 31 32 32 32 30 28 28 28 25 27 33 37 39 40 38 34 33 33 34 38 39 37 38 38 36 34 32 30 26 25 25 25 25 27 nan nan nan nan nan nan nan nan nan nan nan nan nan nan nan nan nan nan nan nan nan nan nan nan nan nan nan nan nan nan nan nan nan nan nan nan
nan nan nan nan 28 30 30 30 30 32 37 36 34 32 31 30 32 32 29 27 28 29 28 32 36 38 39 42 42 40 38 38 36 35 37 38 39 41 41 40 40 37 32 30 29 27 26 25 29 29 nan nan nan nan nan nan nan nan nan nan nan nan nan nan nan nan nan nan nan nan nan nan nan nan nan nan nan nan nan nan nan nan nan nan nan
nan nan nan nan nan 34 31 32 35 37 37 36 36 34 33 34 36 35 32 29 29 nan 35 39 41 nan nan 42 43 40 37 35 35 36 37 38 37 36 36 35 35 36 36 35 nan nan nan 29 29 29 nan nan nan nan nan nan nan nan nan nan nan nan nan nan nan nan nan nan nan nan nan nan nan nan nan nan nan nan nan nan nan nan nan nan nan
nan nan nan nan nan 39 40 40 39 38 36 35 37 35 35 38 42 40 36 34 nan 33 37 41 nan 41 nan nan nan 40 37 36 36 36 38 38 38 38 38 38 38 37 36 nan nan nan nan nan nan 37 nan nan nan nan nan nan nan nan nan nan nan nan nan nan nan nan nan nan nan nan nan 40 nan nan nan nan nan nan nan nan nan nan nan nan nan
nan nan nan nan nan 38 41 41 40 39 38 37 33 36 39 42 44 nan nan nan nan nan nan nan 40 39 nan 39 39 39 38 39 40 40 40 40 40 40 39 39 41 41 nan nan nan nan nan nan nan nan nan nan nan nan nan nan nan nan nan nan nan nan nan nan 38 nan nan nan nan nan nan nan nan nan nan nan nan nan nan nan nan nan nan nan nan
nan nan nan nan nan nan nan 44 43 nan nan 43 nan 36 nan nan nan nan nan nan nan nan 37 38 38 37 37 36 37 39 41 41 40 nan nan 41 40 nan 40 41 41 nan nan nan nan nan nan nan nan nan nan nan nan nan nan nan nan nan nan nan nan nan nan 35 nan nan nan nan nan nan nan nan nan nan nan nan nan nan nan nan nan nan nan nan nan
nan nan nan nan nan nan nan nan nan nan nan nan nan nan nan 43 43 nan nan nan nan 37 37 38 37 37 39 42 39 40 nan nan nan nan nan nan nan nan nan nan nan nan nan nan nan nan nan nan nan nan nan nan nan nan nan nan nan nan nan nan nan nan nan nan nan nan nan nan nan nan nan nan nan nan nan nan nan nan nan nan nan nan nan nan nan
nan nan nan nan nan nan nan nan nan nan nan 47 49 47 45 41 nan nan nan nan 37 37 37 38 38 37 38 41 45 42 nan nan nan nan nan nan nan nan nan nan nan nan nan nan nan nan nan nan nan nan nan nan nan nan nan nan nan nan nan nan nan nan nan nan nan nan nan nan nan nan nan nan nan nan nan nan nan nan nan nan nan nan nan nan nan
Wind_Direction
289 284 278 279 281 280 280 276 276 280 282 268 259 247 244 256 265 272 273 276 277 278 280 282 283 286 291 293 293 294 295 292 289 290 286 286 289 293 300 293 291 277 nan nan nan nan nan nan nan nan nan nan nan nan nan nan nan nan nan nan nan nan nan nan nan nan nan nan nan nan nan nan nan nan nan nan nan nan nan nan nan nan nan nan nan
281 279 277 277 280 279 276 273 274 275 277 271 254 241 249 258 264 267 271 272 275 276 278 281 283 284 289 291 293 295 295 293 290 288 289 291 293 297 296 290 282 280 278 nan nan nan nan nan nan nan nan nan nan nan nan nan nan nan nan nan nan nan nan nan nan nan nan nan nan nan nan nan nan nan nan nan nan nan nan nan nan nan nan nan nan
280 279 274 274 279 278 273 268 273 275 276 272 256 242 241 260 264 265 268 270 273 277 282 282 280 283 283 287 288 291 293 290 288 287 289 291 297 300 301 nan nan 289 274 277 293 nan nan nan nan nan nan nan nan nan nan nan nan nan nan nan nan nan nan nan nan nan nan nan nan nan nan nan nan nan nan nan nan nan nan nan nan nan nan nan nan
283 280 275 278 282 279 271 265 268 274 276 275 264 247 241 244 250 256 262 268 272 278 279 280 278 276 281 280 285 286 288 289 288 288 289 292 296 300 302 303 303 291 286 281 283 nan nan nan nan nan nan nan nan nan nan nan nan nan nan nan nan nan nan nan nan nan nan nan nan nan nan nan nan nan nan nan nan nan nan nan nan nan nan nan nan
284 283 279 281 283 277 269 264 261 266 269 271 267 254 247 249 253 256 263 267 273 275 276 271 273 273 276 278 278 281 282 287 288 290 294 296 299 300 303 305 304 300 298 301 298 nan nan nan nan nan 304 304 303 301 296 292 289 288 286 288 nan 292 nan nan nan nan nan nan nan nan nan nan nan nan nan nan nan nan nan nan nan nan nan nan nan
282 283 281 282 283 275 268 265 263 263 265 270 268 260 257 259 260 259 259 268 272 273 269 267 263 269 272 276 279 278 282 286 289 291 294 297 298 301 303 305 307 308 308 nan 303 nan nan nan 312 309 308 307 308 303 299 296 293 287 288 288 288 295 299 305 311 nan nan nan nan nan nan nan nan nan nan nan nan nan nan nan nan nan nan nan nan
283 282 281 282 279 273 270 267 268 272 271 267 266 264 262 263 262 262 262 265 273 273 272 266 267 271 274 277 277 278 282 287 291 294 296 297 300 298 302 304 307 310 310 311 310 308 308 312 315 310 312 312 305 296 288 289 283 286 285 286 286 290 292 297 308 320 317 nan nan nan nan nan nan nan nan nan nan nan nan nan nan nan nan nan nan
281 279 275 278 272 269 268 267 270 274 278 270 264 266 265 261 260 264 267 266 270 269 263 261 263 268 271 275 275 278 281 286 293 293 294 297 297 296 299 305 310 308 308 309 310 303 288 291 290 301 315 nan 301 294 288 285 282 279 279 277 276 290 295 298 301 309 319 323 323 320 nan nan nan nan nan nan nan nan nan nan nan nan nan nan nan
279 276 271 273 266 265 265 269 271 276 277 274 267 266 263 259 262 262 256 264 264 266 260 258 261 265 269 272 274 276 281 284 290 nan 292 298 294 295 300 307 303 303 308 307 309 312 295 282 291 281 271 263 279 287 281 280 281 275 271 281 285 293 301 298 295 297 310 316 316 nan nan nan nan nan nan nan nan nan nan nan nan nan nan nan nan
279 273 263 265 264 263 265 267 270 273 275 274 271 265 259 255 267 267 263 264 262 263 261 259 260 262 265 267 272 275 276 281 284 286 295 298 297 300 303 304 302 300 302 301 304 305 313 307 299 296 277 273 275 288 nan 290 272 269 280 284 297 300 302 292 287 286 288 288 287 304 nan nan nan nan nan nan nan nan nan nan nan nan nan nan nan
281 276 261 261 262 263 267 270 268 268 271 273 273 272 257 259 274 276 270 267 261 258 259 259 260 261 262 262 264 264 268 275 281 nan 292 295 292 296 305 306 297 300 301 299 302 302 299 303 322 333 319 292 270 255 263 251 262 266 283 298 302 303 297 291 289 285 nan nan nan nan nan nan nan nan nan nan nan nan nan nan nan nan nan nan nan
279 278 267 262 262 266 270 270 267 266 266 268 274 271 263 267 281 285 280 269 261 258 259 260 258 259 259 257 262 264 269 277 283 nan 287 290 291 291 303 298 296 299 300 296 299 300 293 293 298 308 311 306 282 268 268 263 256 283 288 303 306 302 289 286 287 nan nan nan nan nan nan 323 nan nan nan nan nan nan nan nan nan nan nan nan nan
268 265 266 268 264 265 269 265 264 264 264 265 271 269 262 266 275 277 282 275 267 267 264 263 263 257 259 262 263 265 268 278 284 nan 291 291 288 289 288 301 299 300 295 290 295 287 nan 284 289 296 315 309 309 287 268 262 277 294 305 297 294 287 280 nan nan nan nan nan nan nan nan 314 nan nan nan nan nan nan nan nan nan nan nan nan nan
264 259 264 272 269 268 267 264 261 260 258 259 267 265 267 264 270 272 276 279 273 279 273 270 262 265 266 260 256 256 264 273 279 285 nan 285 nan nan 291 300 300 299 291 289 nan nan nan nan 296 295 302 297 291 286 300 308 288 275 284 287 279 nan nan nan nan nan nan nan nan nan nan 308 nan nan nan nan nan nan nan nan nan nan nan nan nan
261 261 262 268 271 273 270 267 265 258 256 257 265 262 264 271 277 272 274 271 269 274 278 278 263 266 264 264 261 262 257 265 271 278 281 nan nan 285 290 298 300 297 293 290 285 nan nan 276 288 281 284 292 282 296 282 262 253 265 281 270 nan nan nan nan nan nan nan 279 298 303 305 306 nan nan nan nan nan nan nan nan nan nan nan nan nan
258 264 262 265 270 273 269 260 256 256 254 257 265 264 261 262 269 273 278 277 269 272 278 276 261 273 265 255 260 260 260 269 272 272 276 nan 281 nan 281 287 301 299 nan 299 nan nan nan nan 275 279 278 277 280 278 281 274 nan nan nan nan nan nan nan nan nan nan 283 286 294 300 303 305 304 nan nan nan nan nan nan nan nan nan nan nan nan
251 260 259 262 266 270 270 256 253 251 252 259 261 267 266 272 277 272 277 276 277 269 276 273 270 259 259 261 255 nan nan nan 275 nan 274 nan 283 nan nan nan 302 nan nan 296 nan nan 274 nan 277 282 285 284 279 283 279 283 279 275 nan nan nan nan nan nan nan 272 290 294 295 300 303 300 294 nan nan nan nan nan nan nan nan nan nan nan nan
246 251 252 250 257 267 267 262 258 251 254 260 260 259 266 276 283 276 273 272 277 273 273 269 265 261 244 238 240 246 263 269 276 nan 270 272 nan nan 286 nan nan nan nan nan nan nan 278 278 nan nan 280 278 285 288 279 269 nan nan nan nan nan nan nan nan nan 288 292 293 294 294 293 nan nan nan nan nan nan nan nan nan nan nan nan nan nan
231 239 244 243 247 255 261 261 258 254 247 258 258 264 264 269 273 274 271 269 272 271 276 275 265 260 252 249 243 245 253 272 nan nan nan nan 277 nan nan nan nan nan nan nan 293 286 nan nan nan nan nan nan nan 278 275 nan nan nan nan nan nan nan nan nan nan 258 291 291 291 292 292 293 nan nan nan nan nan nan nan nan nan nan nan nan nan
242 241 244 241 240 246 249 248 248 251 249 246 252 256 257 259 266 268 271 269 270 264 271 274 276 274 270 259 254 251 263 252 250 267 268 nan nan 273 269 277 276 nan 286 285 284 285 nan nan nan nan nan nan nan nan nan nan nan nan nan nan nan nan nan nan nan nan 280 285 288 291 290 288 nan nan nan nan nan nan nan nan nan nan nan nan nan
254 248 257 265 260 251 251 246 240 240 246 251 254 260 269 266 263 260 271 269 264 259 263 272 275 273 279 nan 261 259 261 254 258 261 265 nan nan nan nan nan nan nan nan nan nan 280 nan 283 nan nan nan nan nan nan nan nan nan nan nan nan nan nan nan nan nan nan nan 280 282 285 285 nan nan nan nan nan nan nan nan nan nan nan nan nan nan
252 247 243 244 246 244 242 242 240 242 240 244 256 266 268 267 269 268 276 275 264 260 261 262 268 268 276 274 269 264 264 263 264 269 263 264 265 nan nan nan nan nan nan nan 276 282 283 nan nan nan nan nan nan nan nan nan nan nan nan nan nan nan nan nan nan nan nan nan nan nan nan nan nan nan nan nan nan nan nan nan nan nan nan nan nan
250 247 238 245 254 255 251 248 244 244 246 247 253 258 265 266 263 273 273 275 265 262 263 263 262 264 270 269 271 273 273 274 273 274 270 273 nan 271 nan nan nan nan nan nan 276 279 nan nan nan nan nan nan nan nan nan nan nan nan nan nan nan nan nan nan nan nan nan nan nan nan nan nan nan nan nan nan nan nan nan nan nan nan nan nan nan
242 249 252 247 241 244 249 249 249 254 257 254 255 255 256 260 259 261 260 264 262 260 260 257 263 260 266 265 268 271 269 265 268 271 271 270 270 nan nan nan nan nan nan nan nan 276 nan nan nan nan nan nan nan nan nan nan nan nan nan nan nan nan nan nan nan nan nan nan nan nan nan nan nan nan nan nan nan nan nan nan nan nan nan nan nan
240 240 244 253 251 243 239 240 245 252 257 254 249 248 247 255 256 253 251 261 263 264 264 272 274 268 267 266 264 268 269 264 264 268 267 263 267 272 nan nan nan nan nan nan nan nan 276 nan nan nan nan nan nan nan nan nan nan nan nan nan nan nan nan nan nan nan nan nan nan nan nan nan nan nan nan nan nan nan nan nan nan nan nan nan nan
252 247 247 250 254 257 251 245 239 240 245 254 257 254 254 257 259 260 260 253 248 252 253 261 266 271 263 262 265 264 266 268 268 269 270 271 273 276 275 nan nan nan nan nan nan nan nan nan nan nan nan nan nan nan nan nan nan nan nan nan nan nan nan nan nan nan nan nan nan nan nan nan nan nan nan nan nan nan nan nan nan nan nan nan nan
253 250 249 249 252 256 259 259 252 246 241 245 257 260 257 257 258 259 258 259 259 257 253 254 254 264 267 260 263 265 266 269 270 272 271 274 275 277 280 nan nan nan nan nan nan nan 276 nan nan nan nan nan nan nan nan nan nan nan nan nan nan nan nan nan nan nan nan nan nan nan nan nan nan nan nan nan nan nan nan nan nan nan nan nan nan
248 250 252 251 252 258 261 259 259 257 252 246 252 259 259 258 257 258 261 258 258 263 258 256 254 258 266 265 260 265 265 268 270 270 270 272 273 275 278 278 nan nan nan nan nan nan nan nan nan nan nan nan nan nan nan nan nan nan nan nan nan nan nan nan nan nan nan nan nan nan nan nan nan nan nan nan nan nan nan nan nan nan nan nan nan
250 249 251 255 254 256 260 264 262 259 259 254 249 252 258 257 256 260 258 258 258 255 250 253 255 258 259 269 261 262 264 266 267 267 269 270 272 275 278 278 276 274 nan nan nan nan nan nan nan nan nan nan nan nan nan nan nan nan nan nan nan nan nan nan nan nan nan nan nan nan nan nan nan nan nan nan nan nan nan nan nan nan nan nan nan
253 250 249 252 255 260 260 259 257 258 259 255 250 251 256 253 253 255 255 256 254 248 245 246 244 253 255 255 259 258 262 266 270 268 269 270 272 275 277 275 274 272 273 nan 278 281 280 nan 283 nan nan nan nan nan nan nan nan nan nan nan nan nan nan nan nan nan nan nan nan nan nan nan nan nan nan nan nan nan nan nan nan nan nan nan nan
258 253 250 249 254 261 263 257 257 256 257 256 251 248 252 252 252 252 252 253 253 251 248 245 241 252 263 261 258 258 262 266 267 266 267 269 272 274 275 274 274 271 270 271 nan 274 276 283 nan nan nan nan nan nan nan nan nan nan nan nan nan nan nan nan nan nan nan nan nan nan nan nan nan nan nan nan nan nan nan nan nan nan nan nan nan
262 258 253 252 254 261 266 264 263 262 259 258 253 250 251 251 250 252 253 257 255 252 253 252 242 248 258 261 261 261 263 264 265 265 266 269 269 271 274 274 274 273 270 271 271 271 nan 271 nan nan nan nan nan nan nan nan nan nan nan nan nan nan nan nan nan nan nan nan nan nan nan nan nan nan nan nan nan nan nan nan nan nan nan nan nan
265 259 255 255 257 261 265 265 266 268 269 268 257 248 246 249 249 252 255 256 257 251 250 249 236 239 255 260 262 264 266 265 264 263 264 268 268 268 270 273 275 276 277 275 273 270 nan nan nan nan nan nan nan nan nan nan nan nan nan nan nan nan nan nan nan nan nan nan nan nan nan nan nan nan nan nan nan nan nan nan nan nan nan nan nan
259 255 254 256 259 261 261 263 268 272 273 272 264 252 248 250 253 251 253 256 257 255 250 248 239 234 245 255 262 265 266 266 264 264 264 265 268 269 272 274 277 277 279 277 276 275 nan nan nan nan nan nan nan nan nan nan nan nan nan nan nan nan nan nan nan nan nan nan nan nan nan nan nan nan nan nan nan nan nan nan nan nan nan nan nan
255 253 254 258 259 257 256 257 265 271 269 264 260 258 254 256 257 254 253 255 259 258 249 246 247 236 242 254 259 261 260 263 264 261 261 262 262 268 272 273 276 277 279 280 275 276 nan nan nan nan nan nan nan nan nan nan nan nan nan nan nan nan nan nan nan nan nan nan nan nan nan nan nan nan nan nan nan nan nan nan nan nan nan nan nan
251 257 262 261 255 252 252 254 260 266 267 264 263 260 259 259 260 260 258 257 257 257 250 244 244 247 250 252 258 262 263 264 264 261 261 265 268 264 270 272 274 276 277 278 278 nan nan nan nan nan nan nan nan nan nan nan nan nan nan nan nan nan nan nan nan nan nan nan nan nan nan nan nan nan nan nan nan nan nan nan nan nan nan nan nan
253 261 267 266 256 250 251 255 258 264 267 268 268 265 260 260 262 261 260 257 253 249 247 244 240 242 251 254 259 262 263 264 263 261 264 272 270 269 269 271 273 275 275 278 280 278 276 nan nan nan nan nan nan nan nan nan nan nan nan nan nan nan nan nan nan nan nan nan nan nan nan nan nan nan nan nan nan nan nan nan nan nan nan nan nan
255 261 266 268 259 251 251 254 257 260 263 266 270 269 268 267 262 260 261 254 245 244 247 248 241 241 251 256 258 260 261 262 261 262 265 271 272 271 273 270 273 274 275 277 278 279 280 279 nan nan nan nan nan nan nan nan nan nan nan nan nan nan nan nan nan nan nan nan nan nan nan nan nan nan nan nan nan nan nan nan nan nan nan nan nan
247 259 265 265 261 255 251 254 258 260 261 265 267 270 271 270 267 264 258 251 243 239 243 246 237 247 255 256 255 257 258 258 259 262 264 266 266 269 268 270 272 272 272 273 275 270 261 260 267 nan nan nan nan nan nan nan nan nan nan nan nan nan nan nan nan nan nan nan nan nan nan nan nan nan nan nan nan nan nan nan nan nan nan nan nan
244 250 257 259 260 262 256 257 260 259 260 264 266 268 267 265 262 261 256 246 244 243 247 250 243 241 254 256 252 252 252 252 255 258 263 265 263 263 265 265 266 267 267 268 269 269 nan nan 274 278 nan nan nan nan nan nan nan nan nan nan nan nan nan nan nan nan nan nan nan nan nan nan nan nan nan nan nan nan nan nan nan nan nan nan nan
245 244 248 255 262 265 266 264 266 263 263 264 263 263 261 258 255 258 256 251 248 246 247 248 245 247 252 254 250 248 247 247 249 253 259 266 268 266 264 259 259 264 264 266 269 270 271 272 nan 272 nan nan nan nan nan nan nan nan nan nan nan nan nan nan nan nan nan nan nan nan nan nan nan nan nan nan nan nan nan nan nan nan nan nan nan
243 245 251 256 261 266 268 270 271 269 269 267 264 267 258 253 254 249 248 248 247 242 238 239 245 253 254 254 247 246 249 252 255 259 265 269 266 267 267 268 268 267 268 268 270 272 273 275 275 nan nan nan nan 277 281 nan nan nan nan nan nan nan nan nan nan nan nan nan nan nan nan nan nan nan nan nan nan nan nan nan nan nan nan nan nan
252 251 256 258 263 267 272 273 273 268 265 259 267 266 258 254 252 249 244 243 246 246 244 241 239 253 255 253 250 251 251 250 251 258 263 260 260 251 253 255 255 259 268 270 269 271 274 275 278 nan nan nan nan nan nan nan nan nan nan nan nan nan nan nan nan nan nan nan nan nan nan nan nan nan nan nan nan nan nan nan nan nan nan nan nan
nan nan nan nan nan 269 271 275 267 262 259 263 267 268 260 257 254 245 239 242 250 251 249 247 244 249 253 250 249 250 252 252 253 251 248 251 255 253 252 252 252 249 245 254 263 270 272 275 279 nan nan nan nan nan nan nan nan nan nan nan nan nan nan nan nan nan nan nan nan nan nan nan nan nan nan nan nan nan nan nan nan nan nan nan nan
nan nan nan nan 264 264 266 267 264 262 255 258 266 267 260 258 257 246 239 249 252 253 253 250 250 255 258 256 252 249 249 255 254 254 256 254 253 256 256 254 249 248 249 247 243 250 265 268 266 267 nan nan nan nan nan nan nan nan nan nan nan nan nan nan nan nan nan nan nan nan nan nan nan nan nan nan nan nan nan nan nan nan nan nan nan
nan nan nan nan nan 255 257 258 261 254 250 254 259 259 258 256 253 240 242 252 256 nan 250 247 248 nan nan 261 256 251 250 252 254 257 257 259 257 255 253 251 252 252 251 250 nan nan nan 264 272 270 nan nan nan nan nan nan nan nan nan nan nan nan nan nan nan nan nan nan nan nan nan nan nan nan nan nan nan nan nan nan nan nan nan nan nan
nan nan nan nan nan 245 246 247 246 242 240 248 257 257 257 256 247 240 245 252 nan 254 247 243 nan 248 nan nan nan 251 251 252 252 257 260 258 255 251 251 249 249 248 246 nan nan nan nan nan nan 259 nan nan nan nan nan nan nan nan nan nan nan nan nan nan nan nan nan nan nan nan nan 286 nan nan nan nan nan nan nan nan nan nan nan nan nan
nan nan nan nan nan 244 246 246 244 236 230 225 252 256 257 256 247 nan nan nan nan nan nan nan 244 247 nan 254 251 249 251 252 253 258 258 257 255 253 252 252 253 251 nan nan nan nan nan nan nan nan nan nan nan nan nan nan nan nan nan nan nan nan nan nan 285 nan nan nan nan nan nan nan nan nan nan nan nan nan nan nan nan nan nan nan nan
nan nan nan nan nan nan nan 237 231 nan nan 222 nan 248 nan nan nan nan nan nan nan nan 252 245 246 249 249 247 247 248 251 252 256 nan nan 258 254 nan 254 254 257 nan nan nan nan nan nan nan nan nan nan nan nan nan nan nan nan nan nan nan nan nan nan 283 nan nan nan nan nan nan nan nan nan nan nan nan nan nan nan nan nan nan nan nan nan
nan nan nan nan nan nan nan nan nan nan nan nan nan nan nan 256 250 nan nan nan nan 256 250 245 248 248 244 236 238 249 nan nan nan nan nan nan nan nan nan nan nan nan nan nan nan nan nan nan nan nan nan nan nan nan nan nan nan nan nan nan nan nan nan nan nan nan nan nan nan nan nan nan nan nan nan nan nan nan nan nan nan nan nan nan nan
nan nan nan nan nan nan nan nan nan nan nan 222 226 231 229 233 nan nan nan nan 258 253 250 249 248 248 247 243 236 241 nan nan nan nan nan nan nan nan nan nan nan nan nan nan nan nan nan nan nan nan nan nan nan nan nan nan nan nan nan nan nan nan nan nan nan nan nan nan nan nan nan nan nan nan nan nan nan nan nan nan nan nan nan nan nan